Regional Weather Roundup
Issued by NWS Upton, NY

Current Version | Previous Version | Text Only | Print | Product List | Glossary On
Versions: 1 2 3 4 5 6 7 8 9 10 11 12 13 14 15 16 17 18 19 20 21 22 23 24 25 26 27
000
ASUS41 KOKX 302004
RWROKX

REGIONAL WEATHER ROUNDUP
NATIONAL WEATHER SERVICE NEW YORK NY
400 PM EDT TUE AUG 30 2016

NOTE: "FAIR" INDICATES FEW OR NO CLOUDS BELOW 12,000 FEET WITH NO
SIGNIFICANT WEATHER AND/OR OBSTRUCTIONS TO VISIBILITY.

NYZ071-072-176-178-NJZ106-104-302100-
NEW YORK CITY METRO AREA

CITY           SKY/WX    TMP DP  RH WIND       PRES   REMARKS
Central Park   SUNNY     84  61  45 MISG      30.09F
LaGuardia APRT MOSUNNY   86  61  42 S13G20    30.06F
Kennedy INTL   MOSUNNY   79  64  60 S12       30.09F
Newark/Liberty MOSUNNY   83  62  49 S12       30.06F
Bronx Bot Gard   N/A     82  59  44 E1        30.07F
Wall St Helipt CLEAR     84  61  45 S8        30.07F
Teterboro      PTSUNNY   86  58  38 E6        30.04F
$$

NYZ177-179-078>081-302100-
LONG ISLAND NEW YORK

CITY           SKY/WX    TMP DP  RH WIND       PRES   REMARKS
Farmingdale    MOSUNNY   82  60  47 SW9       30.08F
MacArthur/ISP  MOSUNNY   81  63  54 S12       30.07F
Shirley        SUNNY     80  59  48 S10       30.09F
Riverhead      NOT AVBL
Westhampton    SUNNY     78  59  51 S10       30.10F
Southampton      N/A     77  66  69 SW8       30.05F
Bridgehampton    N/A     79  66  65 S1        29.94F
East Hampton   FAIR      76  63  64 SE8       30.08F
Montauk          N/A     77  64  64 S6        30.09F
$$

NYZ052-065-067-302100-
HUDSON VALLEY

CITY           SKY/WX    TMP DP  RH WIND       PRES   REMARKS
White Plains   MOSUNNY   79  62  56 SE8       30.07F
Newburgh       MOSUNNY   81  61  50 W9        30.10F
Montgomery     SUNNY     83  62  49 W9        30.07F
Poughkeepsie   MOSUNNY   81  57  43 MISG      30.05F
Albany         PTSUNNY   80  56  43 W9        30.06F
$$

NJZ001-105-106-008-010-013-015-019>022-104-302100-
NEW JERSEY

CITY           SKY/WX    TMP DP  RH WIND       PRES   REMARKS
Newark/Liberty MOSUNNY   83  62  49 S12       30.06F
Teterboro      PTSUNNY   86  58  38 E6        30.04F
Caldwell       MOSUNNY   86  57  37 VRB3      30.06F
Morristown     PTSUNNY   86  57  37 W3        30.06F
Somerville     SUNNY     86  58  38 VRB5      30.05F
Linden         FAIR      83  62  48 S12       30.08F
Sussex         MOSUNNY   83  60  45 VRB5      30.08F
Abdover          N/A     81  59  47 CALM      30.09F
Trenton        SUNNY     84  59  42 VRB6      30.06F
Millville      PTSUNNY   84  72  67 SE8       30.06F
Atlantic City  CLOUDY    80  69  69 SE8       30.07F
Wrightstown    MOSUNNY   83  67  56 E8        30.03F
Toms River     MOSUNNY   84  67  56 SE9       30.08F
Belmar         MOSUNNY   81  66  60 SE9       30.09F
$$

PAZ047>061-062-071-302100-
EASTERN PENNSYLVANIA

CITY           SKY/WX    TMP DP  RH WIND       PRES   REMARKS
Philadelphia   MOSUNNY   88  58  36 S5        30.05F
Allentown      SUNNY     87  58  37 CALM      30.08F
Scranton       SUNNY     82  57  42 VRB3      30.10F
$$

CTZ002-004>006-009-010-012-RIZ004-006-007-MAZ004-011-015-302100-
SOUTHERN NEW ENGLAND
 IN CT

CITY           SKY/WX    TMP DP  RH WIND       PRES   REMARKS
Bradley INTL   PTSUNNY   84  54  35 W13G18    30.06F
Hartford       MOSUNNY   86  56  35 SW8       30.05F
Danbury        SUNNY     79  57  46 W7        30.09F
Wtrbury/Oxford PTSUNNY   79  55  44 NW7       30.12F
Bridgeport     SUNNY     81  60  48 S12       30.07F
Meriden        SUNNY     85  55  35 W9        30.07F
New Haven      MOSUNNY   81  59  47 SW8       30.07F
Chester        FAIR      79  59  50 CALM      30.08F
Groton         SUNNY     76  64  66 S8        30.07F
Wilimantic     SUNNY     82  57  42 W5        30.08F

 IN RI

CITY           SKY/WX    TMP DP  RH WIND       PRES   REMARKS
Providence     PTSUNNY   78  59  51 S10       30.07F
Block Island   MOSUNNY   76  62  62 S9        30.09F
Westerly       SUNNY     76  61  59 S10       30.09F
 IN MA

CITY           SKY/WX    TMP DP  RH WIND       PRES   REMARKS
Boston         MOSUNNY   76  59  55 SE16      30.05F
Worcester      SUNNY     76  50  40 SW8G16    30.10F
Westfield      SUNNY     85  51  31 W7        30.05F
Provincetown   SUNNY     78  60  53 S8        30.08F
Nantucket      SUNNY     72  59  63 S8        30.10F
$$

ANZ330-335-338-340-345-350-353-355-302100-
COASTAL MARINE OBSERVATIONS


STATION/POSITION TIME  SKY/WX   TEMP    WIND        PRES    VSBY  WAVE
                                AIR SEA DIR/SP/G                  HT/PER
                 (UTC)          (F)     (DEG/KT/KT) (MB)    (MI)  (FT/S)
NY HARB ENTRANCE 1850            76 79  130/  6/  8 1019.4          5/12
20S FIRE ISLAND  1850            75 77  120/  2/  6 1019.3          6/12
GREAT SOUTH BAY  1900            75 80  200/  8/ 10   N/A
23 SSW MONTAUK P 1850            73 78  180/  4/  6 1020.2          4/12
15 E BARNEGAT LI 1900               78                N/A           4/13
HUDSON CANYON    1850            77 79              1019.2          5/12
KINGS POINT      1900            81 77              1018.6
EXECUTION ROCKS  1900            77      70/  6/  6   N/A
CENTRAL LI SOUND 1915            76 78  210/  4/  6   N/A           0
EASTERN LI SOUND 1900            73 71  170/  6/  8   N/A
ROBBINS REEF     1906            75     170/ 16/ 17 1018.1
$$


>>>>>>>>>>>>>>>>>>>>>>>>>>>> KEY <<<<<<<<<<<<<<<<<<<<<<<<<<<
>                                                          <
>     SKY/WX - Sky Condition/Present Weather               <
>     TMP    - Temperature in Fahrenheit                   <
>     DP     - Dew Point in Fahrenheit                     <
>     RH     - Relative Humidity in Percent                <
>     WIND   - Direction (from) and Speed in MPH           <
>     PRES   - Mean Sea Level Pressure (inches of Hg)      <
>     WCI    - Wind Chill Index                            <
>     VSB    - VISIBILITY IN MILES                         <
>     HX     - HEAT INDEX                                  <
>     TC     - TEMPERATURE IN CELSIUS                      <
>     VRB    - VARIABLE WIND DIRECTION                     <
>                                                          <
>>>>>>>>>>>>>>>>>>>>>>>>>>>> KEY <<<<<<<<<<<<<<<<<<<<<<<<<<<




USA.gov is the U.S. government's official web portal to all federal, state and local government web resources and services.